{"data":{"norad_id":47354,"intl_designator":"2021-005F","name":"STARLINK-2046","alt_names":[],"object_type":"PAYLOAD","status":"ACTIVE","operator":null,"country":"US","launch_date":"2021-01-20","launch_site_code":"AFETR","launch_vehicle":null,"mission":null,"orbit_class":"UNKNOWN","rcs_meters":null,"size_class":null,"mass_kg":null,"dimensions":null,"purposes":["comms"],"wikipedia_slug":null,"has_3d_model":false,"image_url":null,"decayed_at":null,"tle_current":{"epoch":"2026-09-19T13:24:56.939904Z","epoch_age_seconds":103354,"freshness":"FRESH","line1":"1 47354U 21005F   26262.55899236  .00035852  00000+0  10802-2 0  9991","line2":"2 47354  53.1577 201.4485 0003553  90.9823 269.1586 15.34010553313285","mean_motion":15.34010553,"eccentricity":0.0003553,"inclination_deg":53.1577,"raan_deg":201.4485,"arg_perigee_deg":90.9823,"mean_anomaly_deg":269.1586,"bstar":0.0010802,"rev_number":31328,"period_min":93.871583685253,"perigee_km":461.4300417533,"apogee_km":466.29196553469,"semimajor_km":6841.998003644,"source":"CELESTRAK","updated_at":"2026-09-20T09:00:38.589160Z"}}}